Location: ????????
(55.6189°N, 38.3031°E)
Time: 12:47:42
(UTC+00:00)

SKYMED 2 - Pass Details

Date: 15 November 2019
Orbit: 621 x 623 km, 97.9° (Epoch: 08 December)

Event Time Altitude Azimuth Distance (km) Brightness Sun altitude
Rises 02:12:01 0° 159° (SSE) 2,896 7.3 -23.4°
Reaches altitude 10° 02:14:11 10° 158° (SSE) 1,994 6.4 -23.1°
Maximum altitude 02:18:31 78° 73° (ENE) 644 3.6 -22.5°
Enters shadow 02:21:50 17° 348° (NNW) 1,577 5.5 -22.0°
